Year,Month,Day,Hour,Minute,Value (Times are PST for temperature in C)
2009,06,18,06,43,13.40
2009,06,18,06,44,13.40
2009,06,18,06,45,13.50
2009,06,18,06,46,13.50
2009,06,18,06,47,13.50
2009,06,18,06,48,13.60
2009,06,18,06,49,13.60
2009,06,18,06,50,13.60
2009,06,18,06,51,13.60
2009,06,18,06,52,13.70
2009,06,18,06,53,13.70
2009,06,18,06,54,13.70
2009,06,18,06,55,13.70
2009,06,18,06,56,13.70
2009,06,18,06,57,13.70
2009,06,18,06,58,13.70
2009,06,18,06,59,13.70
2009,06,18,07,00,13.70
2009,06,18,07,01,13.70
2009,06,18,07,02,13.70
2009,06,18,07,03,13.80
2009,06,18,07,04,13.80
2009,06,18,07,05,13.80
2009,06,18,07,06,13.90
2009,06,18,07,07,13.90
2009,06,18,07,08,13.90
2009,06,18,07,09,14.00
2009,06,18,07,10,14.00
2009,06,18,07,11,14.10
2009,06,18,07,12,14.10
2009,06,18,07,13,14.20
2009,06,18,07,14,14.20
2009,06,18,07,15,14.30
2009,06,18,07,16,14.40
2009,06,18,07,17,14.50
2009,06,18,07,18,14.50
2009,06,18,07,19,14.50
2009,06,18,07,20,14.60
2009,06,18,07,21,14.70
2009,06,18,07,22,14.70
2009,06,18,07,23,14.80
2009,06,18,07,24,14.80
2009,06,18,07,25,14.80
2009,06,18,07,26,14.90
2009,06,18,07,27,15.00
2009,06,18,07,28,15.00
2009,06,18,07,29,15.00
2009,06,18,07,30,15.10
2009,06,18,07,31,15.10
2009,06,18,07,32,15.10
2009,06,18,07,33,15.10
2009,06,18,07,34,15.10
2009,06,18,07,35,15.10
2009,06,18,07,36,15.10
2009,06,18,07,37,15.10
2009,06,18,07,38,15.20
2009,06,18,07,39,15.20
2009,06,18,07,40,15.20
2009,06,18,07,41,15.20
2009,06,18,07,42,15.20
2009,06,18,07,43,15.20
2009,06,18,07,44,15.20
2009,06,18,07,45,15.20
2009,06,18,07,46,15.20
2009,06,18,07,47,15.30
2009,06,18,07,48,15.30
2009,06,18,07,49,15.30
2009,06,18,07,50,15.30
2009,06,18,07,51,15.30
2009,06,18,07,52,15.30
2009,06,18,07,53,15.30
2009,06,18,07,54,15.30
2009,06,18,07,55,15.30
2009,06,18,07,56,15.40
2009,06,18,07,57,15.40
2009,06,18,07,58,15.40
2009,06,18,07,59,15.40
2009,06,18,08,00,15.50
2009,06,18,08,01,15.50
2009,06,18,08,02,15.60
2009,06,18,08,03,15.60
2009,06,18,08,04,15.70
2009,06,18,08,05,15.70
2009,06,18,08,06,15.70
2009,06,18,08,07,15.80
2009,06,18,08,08,15.80
2009,06,18,08,09,15.80
2009,06,18,08,10,15.80
2009,06,18,08,11,15.80
2009,06,18,08,12,15.80
2009,06,18,08,13,15.80
2009,06,18,08,14,15.80
2009,06,18,08,15,15.80
2009,06,18,08,16,15.80
2009,06,18,08,17,15.80
2009,06,18,08,18,15.80
2009,06,18,08,19,15.80
2009,06,18,08,20,15.80
2009,06,18,08,21,15.80
2009,06,18,08,22,15.80
2009,06,18,08,23,15.80
2009,06,18,08,24,15.80
2009,06,18,08,25,15.80
2009,06,18,08,26,15.80
2009,06,18,08,27,15.90
2009,06,18,08,28,15.90
2009,06,18,08,29,15.90
2009,06,18,08,30,15.90
2009,06,18,08,31,15.90
2009,06,18,08,32,15.90
2009,06,18,08,33,15.90
2009,06,18,08,34,16.00
2009,06,18,08,35,16.10
2009,06,18,08,36,16.10
2009,06,18,08,37,16.10
2009,06,18,08,38,16.10
2009,06,18,08,39,16.10
2009,06,18,08,40,16.10
2009,06,18,08,41,16.10
2009,06,18,08,42,16.10
2009,06,18,08,43,16.10
2009,06,18,08,44,16.10
2009,06,18,08,45,16.10
2009,06,18,08,46,16.10
2009,06,18,08,47,16.10
2009,06,18,08,48,16.10
2009,06,18,08,49,16.20
2009,06,18,08,50,16.20
2009,06,18,08,51,16.20
2009,06,18,08,52,16.20
2009,06,18,08,53,16.30
2009,06,18,08,54,16.30
2009,06,18,08,55,16.30
2009,06,18,08,56,16.30
2009,06,18,08,57,16.40
2009,06,18,08,58,16.40
2009,06,18,08,59,16.40
2009,06,18,09,00,16.40
2009,06,18,09,01,16.40
2009,06,18,09,02,16.40
2009,06,18,09,03,16.40
2009,06,18,09,04,16.50
2009,06,18,09,05,16.60
2009,06,18,09,06,16.60
2009,06,18,09,07,16.70
2009,06,18,09,08,16.70
2009,06,18,09,09,16.70
2009,06,18,09,10,16.70
2009,06,18,09,11,16.80
2009,06,18,09,12,16.80
2009,06,18,09,13,16.90
2009,06,18,09,14,16.90
2009,06,18,09,15,17.00
2009,06,18,09,16,17.00
2009,06,18,09,17,17.10
2009,06,18,09,18,17.00
2009,06,18,09,19,17.00
2009,06,18,09,20,16.90
2009,06,18,09,21,16.80
2009,06,18,09,22,16.70
2009,06,18,09,23,16.60
2009,06,18,09,24,16.60
2009,06,18,09,25,16.60
2009,06,18,09,26,16.60
2009,06,18,09,27,16.60
2009,06,18,09,28,16.60
2009,06,18,09,29,16.60
2009,06,18,09,30,16.60
2009,06,18,09,31,16.70
2009,06,18,09,32,16.70
2009,06,18,09,33,16.70
2009,06,18,09,34,16.70
2009,06,18,09,35,16.70
2009,06,18,09,36,16.80
2009,06,18,09,37,16.80
2009,06,18,09,38,16.80
2009,06,18,09,39,16.90
2009,06,18,09,40,16.90
2009,06,18,09,41,17.00
2009,06,18,09,42,17.00
2009,06,18,09,43,17.10
2009,06,18,09,44,17.20
2009,06,18,09,45,17.30
2009,06,18,09,46,17.30
2009,06,18,09,47,17.40
2009,06,18,09,48,17.40
2009,06,18,09,49,17.50
2009,06,18,09,50,17.50
2009,06,18,09,51,17.60
2009,06,18,09,52,17.70
2009,06,18,09,53,17.70
2009,06,18,09,54,17.70
2009,06,18,09,55,17.80
2009,06,18,09,56,17.90
2009,06,18,09,57,18.00
2009,06,18,09,58,18.10
2009,06,18,09,59,18.10
2009,06,18,10,00,18.10
2009,06,18,10,01,18.10
2009,06,18,10,02,18.10
2009,06,18,10,03,18.10
2009,06,18,10,04,18.10
2009,06,18,10,05,18.20
2009,06,18,10,06,18.20
2009,06,18,10,07,18.20
2009,06,18,10,08,18.20
2009,06,18,10,09,18.20
2009,06,18,10,10,18.30
2009,06,18,10,11,18.40
2009,06,18,10,12,18.40
2009,06,18,10,13,18.50
2009,06,18,10,14,18.50
2009,06,18,10,15,18.50
2009,06,18,10,16,18.50
2009,06,18,10,17,18.60
2009,06,18,10,18,18.60
2009,06,18,10,19,18.60
2009,06,18,10,20,18.60
2009,06,18,10,21,18.60
2009,06,18,10,22,18.60
2009,06,18,10,23,18.60
2009,06,18,10,24,18.70
2009,06,18,10,25,18.70
2009,06,18,10,26,18.80
2009,06,18,10,27,18.80
2009,06,18,10,28,18.70
2009,06,18,10,29,18.80
2009,06,18,10,30,18.80
2009,06,18,10,31,18.80
2009,06,18,10,32,18.80
2009,06,18,10,33,18.70
2009,06,18,10,34,18.70
2009,06,18,10,35,18.70
2009,06,18,10,36,18.70
2009,06,18,10,37,18.70
2009,06,18,10,38,18.80
2009,06,18,10,39,18.80
2009,06,18,10,40,18.80
2009,06,18,10,41,18.80
2009,06,18,10,42,18.90
2009,06,18,10,43,18.90
2009,06,18,10,44,18.90
2009,06,18,10,45,18.90
2009,06,18,10,46,19.00
2009,06,18,10,47,19.10
2009,06,18,10,48,19.10
2009,06,18,10,49,19.10
2009,06,18,10,50,19.10
2009,06,18,10,51,19.20
2009,06,18,10,52,19.20
2009,06,18,10,53,19.20
2009,06,18,10,54,19.20
2009,06,18,10,55,19.30
2009,06,18,10,56,19.30
2009,06,18,10,57,19.40
2009,06,18,10,58,19.40
2009,06,18,10,59,19.40
2009,06,18,11,00,19.50
2009,06,18,11,01,19.50
2009,06,18,11,02,19.50
2009,06,18,11,03,19.50
2009,06,18,11,04,19.60
2009,06,18,11,05,19.60
2009,06,18,11,06,19.60
2009,06,18,11,07,19.70
2009,06,18,11,08,19.70
2009,06,18,11,09,19.70
2009,06,18,11,10,19.70
2009,06,18,11,11,19.60
2009,06,18,11,12,19.60
2009,06,18,11,13,19.60
2009,06,18,11,14,19.60
2009,06,18,11,15,19.60
2009,06,18,11,16,19.60
2009,06,18,11,17,19.60
2009,06,18,11,18,19.50
2009,06,18,11,19,19.50
2009,06,18,11,20,19.50
2009,06,18,11,21,19.50
2009,06,18,11,22,19.50
2009,06,18,11,23,19.60
2009,06,18,11,24,19.60
2009,06,18,11,25,19.50
2009,06,18,11,26,19.40
2009,06,18,11,27,19.40
2009,06,18,11,28,19.30
2009,06,18,11,29,19.30
2009,06,18,11,30,19.40
2009,06,18,11,31,19.30
2009,06,18,11,32,19.20
2009,06,18,11,33,19.20
2009,06,18,11,34,19.10
2009,06,18,11,35,19.10
2009,06,18,11,36,19.10
2009,06,18,11,37,19.10
2009,06,18,11,38,19.10
2009,06,18,11,39,19.10
2009,06,18,11,40,19.10
2009,06,18,11,41,19.10
2009,06,18,11,42,19.20
2009,06,18,11,43,19.30
2009,06,18,11,44,19.30
2009,06,18,11,45,19.40
2009,06,18,11,46,19.30
2009,06,18,11,47,19.40
2009,06,18,11,48,19.40
2009,06,18,11,49,19.50
2009,06,18,11,50,19.50
2009,06,18,11,51,19.50
2009,06,18,11,52,19.60
2009,06,18,11,53,19.60
2009,06,18,11,54,19.70
2009,06,18,11,55,19.70
2009,06,18,11,56,19.80
2009,06,18,11,57,19.70
2009,06,18,11,58,19.70
2009,06,18,11,59,19.60
2009,06,18,12,00,19.60
2009,06,18,12,01,19.60
2009,06,18,12,02,19.50
2009,06,18,12,03,19.50
2009,06,18,12,04,19.40
2009,06,18,12,05,19.40
2009,06,18,12,06,19.40
2009,06,18,12,07,19.40
2009,06,18,12,08,19.40
2009,06,18,12,09,19.50
2009,06,18,12,10,19.50
2009,06,18,12,11,19.60
2009,06,18,12,12,19.60
2009,06,18,12,13,19.60
2009,06,18,12,14,19.60
2009,06,18,12,15,19.60
2009,06,18,12,16,19.60
2009,06,18,12,17,19.60
2009,06,18,12,18,19.50
2009,06,18,12,19,19.50
2009,06,18,12,20,19.50
2009,06,18,12,21,19.40
2009,06,18,12,22,19.30
2009,06,18,12,23,19.20
2009,06,18,12,24,19.20
2009,06,18,12,25,19.10
2009,06,18,12,26,19.10
2009,06,18,12,27,19.10
2009,06,18,12,28,19.10
2009,06,18,12,29,19.10
2009,06,18,12,30,18.90
2009,06,18,12,31,18.80
2009,06,18,12,32,18.70
2009,06,18,12,33,18.70
2009,06,18,12,34,18.70
2009,06,18,12,35,18.70
2009,06,18,12,36,18.80
2009,06,18,12,37,18.90
2009,06,18,12,38,18.90
2009,06,18,12,39,18.90
2009,06,18,12,40,18.90
2009,06,18,12,41,19.10
2009,06,18,12,42,19.10
2009,06,18,12,43,19.10
2009,06,18,12,44,19.10
2009,06,18,12,45,19.10
2009,06,18,12,46,19.10
2009,06,18,12,47,19.10
2009,06,18,12,48,19.10
2009,06,18,12,49,19.10
2009,06,18,12,50,19.10
2009,06,18,12,51,19.10
2009,06,18,12,52,19.10
2009,06,18,12,53,19.10
2009,06,18,12,54,19.10
2009,06,18,12,55,19.20
2009,06,18,12,56,19.20
2009,06,18,12,57,19.20
2009,06,18,12,58,19.20
2009,06,18,12,59,19.30
2009,06,18,13,00,19.30
2009,06,18,13,01,19.20
2009,06,18,13,02,19.30
2009,06,18,13,03,19.40
2009,06,18,13,04,19.40
2009,06,18,13,05,19.40
2009,06,18,13,06,19.40
2009,06,18,13,07,19.40
2009,06,18,13,08,19.50
2009,06,18,13,09,19.60
2009,06,18,13,10,19.60
2009,06,18,13,11,19.60
2009,06,18,13,12,19.60
2009,06,18,13,13,19.50
2009,06,18,13,14,19.50
2009,06,18,13,15,19.50
2009,06,18,13,16,19.60
2009,06,18,13,17,19.50
2009,06,18,13,18,19.50
2009,06,18,13,19,19.60
2009,06,18,13,20,19.60
2009,06,18,13,21,19.70
2009,06,18,13,22,19.70
2009,06,18,13,23,19.70
2009,06,18,13,24,19.70
2009,06,18,13,25,19.80
2009,06,18,13,26,19.90
2009,06,18,13,27,19.90
2009,06,18,13,28,19.90
2009,06,18,13,29,19.90
2009,06,18,13,30,19.90
2009,06,18,13,31,19.80
2009,06,18,13,32,19.80
2009,06,18,13,33,19.80
2009,06,18,13,34,19.90
2009,06,18,13,35,19.90
2009,06,18,13,36,19.90
2009,06,18,13,37,19.90
2009,06,18,13,38,19.90
2009,06,18,13,39,20.10
2009,06,18,13,40,20.10
2009,06,18,13,41,20.10
2009,06,18,13,42,20.20
2009,06,18,13,43,20.20
2009,06,18,13,44,20.20
2009,06,18,13,45,20.20
2009,06,18,13,46,20.10
2009,06,18,13,47,20.00
2009,06,18,13,48,19.90
2009,06,18,13,49,20.00
2009,06,18,13,50,20.10
2009,06,18,13,51,20.00
2009,06,18,13,52,19.90
2009,06,18,13,53,19.90
2009,06,18,13,54,19.90
2009,06,18,13,55,20.10
2009,06,18,13,56,20.20
2009,06,18,13,57,20.30
2009,06,18,13,58,20.40
2009,06,18,13,59,20.30
2009,06,18,14,00,20.30
2009,06,18,14,01,20.30
2009,06,18,14,02,20.30
2009,06,18,14,03,20.20
2009,06,18,14,04,20.20
2009,06,18,14,05,20.20
2009,06,18,14,06,20.00
2009,06,18,14,07,19.90
2009,06,18,14,08,19.90
2009,06,18,14,09,19.90
2009,06,18,14,10,19.90
2009,06,18,14,11,19.90
2009,06,18,14,12,19.80
2009,06,18,14,13,19.80
2009,06,18,14,14,19.80
2009,06,18,14,15,19.90
2009,06,18,14,16,19.90
2009,06,18,14,17,19.90
2009,06,18,14,18,19.90
2009,06,18,14,19,19.90
2009,06,18,14,20,19.90
2009,06,18,14,21,19.90
2009,06,18,14,22,19.90
2009,06,18,14,23,19.90
2009,06,18,14,24,20.00
2009,06,18,14,25,20.20
2009,06,18,14,26,20.20
2009,06,18,14,27,20.20
2009,06,18,14,28,20.20
2009,06,18,14,29,20.20
2009,06,18,14,30,20.20
2009,06,18,14,31,20.20
2009,06,18,14,32,20.10
2009,06,18,14,33,20.00
2009,06,18,14,34,19.90
2009,06,18,14,35,19.90
2009,06,18,14,36,19.80
2009,06,18,14,37,19.80
2009,06,18,14,38,19.70
2009,06,18,14,39,19.70
2009,06,18,14,40,19.70
2009,06,18,14,41,19.70
2009,06,18,14,42,19.70
2009,06,18,14,43,19.80
2009,06,18,14,44,19.80
2009,06,18,14,45,19.80
2009,06,18,14,46,19.80
2009,06,18,14,47,19.90
2009,06,18,14,48,20.00
2009,06,18,14,49,20.10
2009,06,18,14,50,20.20
2009,06,18,14,51,20.20
2009,06,18,14,52,20.20
2009,06,18,14,53,20.20
2009,06,18,14,54,20.20
2009,06,18,14,55,20.20
2009,06,18,14,56,20.20
2009,06,18,14,57,20.10
2009,06,18,14,58,20.10
2009,06,18,14,59,20.10
2009,06,18,15,00,20.20
2009,06,18,15,01,20.20
2009,06,18,15,02,20.20
2009,06,18,15,03,20.10
2009,06,18,15,04,20.10
2009,06,18,15,05,20.00
2009,06,18,15,06,19.90
2009,06,18,15,07,19.90
2009,06,18,15,08,19.90
2009,06,18,15,09,20.00
2009,06,18,15,10,20.10
2009,06,18,15,11,20.10
2009,06,18,15,12,20.10
2009,06,18,15,13,20.10
2009,06,18,15,14,20.20
2009,06,18,15,15,20.20
2009,06,18,15,16,20.20
2009,06,18,15,17,20.20
2009,06,18,15,18,20.20
2009,06,18,15,19,20.20
2009,06,18,15,20,20.20
2009,06,18,15,21,20.20
2009,06,18,15,22,20.10
2009,06,18,15,23,20.10
2009,06,18,15,24,20.00
2009,06,18,15,25,19.90
2009,06,18,15,26,20.10
2009,06,18,15,27,20.20
2009,06,18,15,28,20.20
2009,06,18,15,29,20.20
2009,06,18,15,30,20.20
2009,06,18,15,31,20.20
2009,06,18,15,32,20.20
2009,06,18,15,33,20.20
2009,06,18,15,34,20.20
2009,06,18,15,35,20.20
2009,06,18,15,36,20.30
2009,06,18,15,37,20.30
2009,06,18,15,38,20.30
2009,06,18,15,39,20.30
2009,06,18,15,40,20.40
2009,06,18,15,41,20.40
2009,06,18,15,42,20.30
2009,06,18,15,43,20.30
2009,06,18,15,44,20.20
2009,06,18,15,45,20.20
2009,06,18,15,46,20.20
2009,06,18,15,47,20.20
2009,06,18,15,48,20.20
2009,06,18,15,49,20.20
2009,06,18,15,50,20.20
2009,06,18,15,51,20.20
2009,06,18,15,52,20.20
2009,06,18,15,53,20.20
2009,06,18,15,54,20.20
2009,06,18,15,55,20.20
2009,06,18,15,56,20.10
2009,06,18,15,57,20.10
2009,06,18,15,58,20.10
2009,06,18,15,59,19.90
2009,06,18,16,00,19.90
2009,06,18,16,01,19.90
2009,06,18,16,02,19.90
2009,06,18,16,03,19.90
2009,06,18,16,04,19.90
2009,06,18,16,05,19.90
2009,06,18,16,06,19.90
2009,06,18,16,07,19.90
2009,06,18,16,08,19.90
2009,06,18,16,09,20.00
2009,06,18,16,10,20.00
2009,06,18,16,11,19.90
2009,06,18,16,12,19.90
2009,06,18,16,13,19.90
2009,06,18,16,14,19.80
2009,06,18,16,15,19.70
2009,06,18,16,16,19.70
2009,06,18,16,17,19.70
2009,06,18,16,18,19.70
2009,06,18,16,19,19.70
2009,06,18,16,20,19.60
2009,06,18,16,21,19.70
2009,06,18,16,22,19.70
2009,06,18,16,23,19.70
2009,06,18,16,24,19.70
2009,06,18,16,25,19.60
2009,06,18,16,26,19.60
2009,06,18,16,27,19.60
2009,06,18,16,28,19.60
2009,06,18,16,29,19.60
2009,06,18,16,30,19.60
2009,06,18,16,31,19.70
2009,06,18,16,32,19.80
2009,06,18,16,33,19.80
2009,06,18,16,34,19.80
2009,06,18,16,35,19.90
2009,06,18,16,36,19.80
2009,06,18,16,37,19.80
2009,06,18,16,38,19.70
2009,06,18,16,39,19.60
2009,06,18,16,40,19.60
2009,06,18,16,41,19.50
2009,06,18,16,42,19.40
2009,06,18,16,43,19.30
2009,06,18,16,44,19.30
2009,06,18,16,45,19.30
2009,06,18,16,46,19.30
2009,06,18,16,47,19.20
2009,06,18,16,48,19.20
2009,06,18,16,49,19.20
2009,06,18,16,50,19.20
2009,06,18,16,51,19.20
2009,06,18,16,52,19.10
2009,06,18,16,53,19.10
2009,06,18,16,54,18.90
2009,06,18,16,55,18.80
2009,06,18,16,56,18.70
2009,06,18,16,57,18.60
2009,06,18,16,58,18.60
2009,06,18,16,59,18.50
2009,06,18,17,00,18.50
2009,06,18,17,01,18.50
2009,06,18,17,02,18.50
2009,06,18,17,03,18.50
2009,06,18,17,04,18.50
2009,06,18,17,05,18.50
2009,06,18,17,06,18.50
2009,06,18,17,07,18.50
2009,06,18,17,08,18.50
2009,06,18,17,09,18.60
2009,06,18,17,10,18.50
2009,06,18,17,11,18.50
2009,06,18,17,12,18.50
2009,06,18,17,13,18.30
2009,06,18,17,14,18.30
2009,06,18,17,15,18.20
2009,06,18,17,16,18.20
2009,06,18,17,17,18.20
2009,06,18,17,18,18.20
2009,06,18,17,19,18.20
2009,06,18,17,20,18.10
2009,06,18,17,21,18.10
2009,06,18,17,22,18.10
2009,06,18,17,23,18.10
2009,06,18,17,24,18.10
2009,06,18,17,25,18.20
2009,06,18,17,26,18.20
2009,06,18,17,27,18.20
2009,06,18,17,28,18.20
2009,06,18,17,29,18.20
2009,06,18,17,30,18.30
2009,06,18,17,31,18.30
2009,06,18,17,32,18.30
2009,06,18,17,33,18.30
2009,06,18,17,34,18.30
2009,06,18,17,35,18.30
2009,06,18,17,36,18.30
2009,06,18,17,37,18.30
2009,06,18,17,38,18.30
2009,06,18,17,39,18.30
2009,06,18,17,40,18.30
2009,06,18,17,41,18.30
2009,06,18,17,42,18.30
2009,06,18,17,43,18.30
2009,06,18,17,44,18.30
2009,06,18,17,45,18.30
2009,06,18,17,46,18.30
2009,06,18,17,47,18.20
2009,06,18,17,48,18.20
2009,06,18,17,49,18.20
2009,06,18,17,50,18.20
2009,06,18,17,51,18.20
2009,06,18,17,52,18.20
2009,06,18,17,53,18.10
2009,06,18,17,54,18.00
2009,06,18,17,55,17.90
2009,06,18,17,56,17.90
2009,06,18,17,57,17.90
2009,06,18,17,58,17.90
2009,06,18,17,59,17.90
2009,06,18,18,00,17.90
2009,06,18,18,01,17.80
2009,06,18,18,02,17.70
2009,06,18,18,03,17.70
2009,06,18,18,04,17.60
2009,06,18,18,05,17.60
2009,06,18,18,06,17.60
2009,06,18,18,07,17.50
2009,06,18,18,08,17.50
2009,06,18,18,09,17.50
2009,06,18,18,10,17.50
2009,06,18,18,11,17.50
2009,06,18,18,12,17.50
2009,06,18,18,13,17.50
2009,06,18,18,14,17.50
2009,06,18,18,15,17.40
2009,06,18,18,16,17.40
2009,06,18,18,17,17.40
2009,06,18,18,18,17.40
2009,06,18,18,19,17.40
2009,06,18,18,20,17.40
2009,06,18,18,21,17.40
2009,06,18,18,22,17.40
2009,06,18,18,23,17.40
2009,06,18,18,24,17.40
2009,06,18,18,25,17.40
2009,06,18,18,26,17.40
2009,06,18,18,27,17.30
2009,06,18,18,28,17.30
2009,06,18,18,29,17.20
2009,06,18,18,30,17.20
2009,06,18,18,31,17.10
2009,06,18,18,32,17.10
2009,06,18,18,33,17.10
2009,06,18,18,34,17.00
2009,06,18,18,35,17.00
2009,06,18,18,36,17.00
2009,06,18,18,37,16.90
2009,06,18,18,38,16.90
2009,06,18,18,39,16.90
2009,06,18,18,40,16.90
2009,06,18,18,41,16.90
2009,06,18,18,42,16.90
2009,06,18,18,43,16.90
2009,06,18,18,44,16.90
2009,06,18,18,45,16.90
2009,06,18,18,46,16.90
2009,06,18,18,47,16.90
2009,06,18,18,48,16.90
2009,06,18,18,49,16.90
2009,06,18,18,50,16.90
2009,06,18,18,51,16.90
2009,06,18,18,52,16.90
2009,06,18,18,53,16.90
2009,06,18,18,54,16.90
2009,06,18,18,55,16.80
2009,06,18,18,56,16.80
2009,06,18,18,57,16.80
2009,06,18,18,58,16.80
2009,06,18,18,59,16.80
2009,06,18,19,00,16.70
2009,06,18,19,01,16.70
2009,06,18,19,02,16.70
2009,06,18,19,03,16.70
2009,06,18,19,04,16.70
2009,06,18,19,05,16.70
2009,06,18,19,06,16.70
2009,06,18,19,07,16.70
2009,06,18,19,08,16.70
2009,06,18,19,09,16.60
2009,06,18,19,10,16.60
2009,06,18,19,11,16.60
2009,06,18,19,12,16.60
2009,06,18,19,13,16.60
2009,06,18,19,14,16.60
2009,06,18,19,15,16.50
2009,06,18,19,16,16.40
2009,06,18,19,17,16.40
2009,06,18,19,18,16.40
2009,06,18,19,19,16.40
2009,06,18,19,20,16.40
2009,06,18,19,21,16.40
2009,06,18,19,22,16.50
2009,06,18,19,23,16.60
2009,06,18,19,24,16.60
2009,06,18,19,25,16.60
2009,06,18,19,26,16.60
2009,06,18,19,27,16.60
2009,06,18,19,28,16.40
2009,06,18,19,29,16.40
2009,06,18,19,30,16.30
2009,06,18,19,31,16.20
2009,06,18,19,32,16.10
2009,06,18,19,33,16.00
2009,06,18,19,34,15.90
2009,06,18,19,35,15.90
2009,06,18,19,36,15.80
2009,06,18,19,37,15.80
2009,06,18,19,38,15.80
2009,06,18,19,39,15.80
2009,06,18,19,40,15.80
2009,06,18,19,41,15.80
2009,06,18,19,42,15.80
2009,06,18,19,43,15.80
2009,06,18,19,44,15.80
2009,06,18,19,45,15.90
2009,06,18,19,46,15.90
2009,06,18,19,47,16.00
2009,06,18,19,48,16.10
2009,06,18,19,49,16.10
2009,06,18,19,50,16.10
2009,06,18,19,51,16.10
2009,06,18,19,52,16.10
2009,06,18,19,53,16.20
2009,06,18,19,54,16.20
2009,06,18,19,55,16.20
2009,06,18,19,56,16.30
2009,06,18,19,57,16.30
2009,06,18,19,58,16.30
2009,06,18,19,59,16.40
2009,06,18,20,00,16.40
2009,06,18,20,01,16.40
2009,06,18,20,02,16.40
2009,06,18,20,03,16.40
2009,06,18,20,04,16.40
2009,06,18,20,05,16.40
2009,06,18,20,06,16.40
2009,06,18,20,07,16.50
2009,06,18,20,08,16.60
2009,06,18,20,09,16.60
2009,06,18,20,10,16.60
2009,06,18,20,11,16.70
2009,06,18,20,12,16.70
2009,06,18,20,13,16.70
2009,06,18,20,14,16.70
2009,06,18,20,15,16.70
2009,06,18,20,16,16.70
2009,06,18,20,17,16.70
2009,06,18,20,18,16.70
2009,06,18,20,19,16.70
2009,06,18,20,20,16.80
2009,06,18,20,21,16.80
2009,06,18,20,22,16.80
2009,06,18,20,23,16.80
2009,06,18,20,24,16.80
2009,06,18,20,25,16.80
2009,06,18,20,26,16.80
2009,06,18,20,27,16.80
2009,06,18,20,28,16.90
2009,06,18,20,29,16.90
2009,06,18,20,30,16.90
2009,06,18,20,31,16.90
2009,06,18,20,32,16.90
2009,06,18,20,33,16.90
2009,06,18,20,34,17.00
2009,06,18,20,35,17.00
2009,06,18,20,36,17.00
2009,06,18,20,37,17.00
2009,06,18,20,38,17.00
2009,06,18,20,39,17.00
2009,06,18,20,40,17.00
2009,06,18,20,41,17.00
2009,06,18,20,42,17.00
2009,06,18,20,43,17.00
2009,06,18,20,44,16.90
2009,06,18,20,45,16.90
2009,06,18,20,46,16.90
2009,06,18,20,47,16.90
2009,06,18,20,48,16.90
2009,06,18,20,49,16.90
2009,06,18,20,50,16.80
2009,06,18,20,51,16.80
2009,06,18,20,52,16.80
2009,06,18,20,53,16.80
2009,06,18,20,54,16.80
2009,06,18,20,55,16.80
2009,06,18,20,56,16.80
2009,06,18,20,57,16.70
2009,06,18,20,58,16.70
2009,06,18,20,59,16.70
2009,06,18,21,00,16.70
2009,06,18,21,01,16.70
2009,06,18,21,02,16.70
2009,06,18,21,03,16.70
2009,06,18,21,04,16.70
2009,06,18,21,05,16.70
2009,06,18,21,06,16.70
2009,06,18,21,07,16.70
2009,06,18,21,08,16.70
2009,06,18,21,09,16.70
2009,06,18,21,10,16.70
2009,06,18,21,11,16.70
2009,06,18,21,12,16.70
2009,06,18,21,13,16.70
2009,06,18,21,14,16.70
2009,06,18,21,15,16.60
2009,06,18,21,16,16.60
2009,06,18,21,17,16.60
2009,06,18,21,18,16.60
2009,06,18,21,19,16.60
2009,06,18,21,20,16.60
2009,06,18,21,21,16.60
2009,06,18,21,22,16.60
2009,06,18,21,23,16.50
2009,06,18,21,24,16.40
2009,06,18,21,25,16.40
2009,06,18,21,26,16.40
2009,06,18,21,27,16.40
2009,06,18,21,28,16.40
2009,06,18,21,29,16.40
2009,06,18,21,30,16.40
2009,06,18,21,31,16.40
2009,06,18,21,32,16.40
2009,06,18,21,33,16.40
2009,06,18,21,34,16.40
2009,06,18,21,35,16.40
2009,06,18,21,36,16.40
2009,06,18,21,37,16.40
2009,06,18,21,38,16.40
2009,06,18,21,39,16.40
2009,06,18,21,40,16.30
2009,06,18,21,41,16.30
2009,06,18,21,42,16.30
2009,06,18,21,43,16.30
2009,06,18,21,44,16.30
2009,06,18,21,45,16.30
2009,06,18,21,46,16.30
2009,06,18,21,47,16.30
2009,06,18,21,48,16.30
2009,06,18,21,49,16.30
2009,06,18,21,50,16.30
2009,06,18,21,51,16.30
2009,06,18,21,52,16.30
2009,06,18,21,53,16.30
2009,06,18,21,54,16.30
2009,06,18,21,55,16.30
2009,06,18,21,56,16.30
2009,06,18,21,57,16.40
2009,06,18,21,58,16.40
2009,06,18,21,59,16.40
2009,06,18,22,00,16.40
2009,06,18,22,01,16.40
2009,06,18,22,02,16.40
2009,06,18,22,03,16.40
2009,06,18,22,04,16.40
2009,06,18,22,05,16.40
2009,06,18,22,06,16.40
2009,06,18,22,07,16.40
2009,06,18,22,08,16.50
2009,06,18,22,09,16.60
2009,06,18,22,10,16.60
2009,06,18,22,11,16.60
2009,06,18,22,12,16.60
2009,06,18,22,13,16.60
2009,06,18,22,14,16.60
2009,06,18,22,15,16.70
2009,06,18,22,16,16.70
2009,06,18,22,17,16.70
2009,06,18,22,18,16.70
2009,06,18,22,19,16.70
2009,06,18,22,20,16.70
2009,06,18,22,21,16.70
2009,06,18,22,22,16.70
2009,06,18,22,23,16.70
2009,06,18,22,24,16.70
2009,06,18,22,25,16.70
2009,06,18,22,26,16.70
2009,06,18,22,27,16.70
2009,06,18,22,28,16.70
2009,06,18,22,29,16.70
2009,06,18,22,30,16.70
2009,06,18,22,31,16.70
2009,06,18,22,32,16.70
2009,06,18,22,33,16.70
2009,06,18,22,34,16.70
2009,06,18,22,35,16.70
2009,06,18,22,36,16.70
2009,06,18,22,37,16.70
2009,06,18,22,38,16.70
2009,06,18,22,39,16.70
2009,06,18,22,40,16.70
2009,06,18,22,41,16.70
2009,06,18,22,42,16.70
2009,06,18,22,43,16.70
2009,06,18,22,44,16.70
2009,06,18,22,45,16.70
2009,06,18,22,46,16.70
2009,06,18,22,47,16.70
2009,06,18,22,48,16.70
2009,06,18,22,49,16.60
2009,06,18,22,50,16.60
2009,06,18,22,51,16.60
2009,06,18,22,52,16.60
2009,06,18,22,53,16.60
2009,06,18,22,54,16.60
2009,06,18,22,55,16.60
2009,06,18,22,56,16.60
2009,06,18,22,57,16.60
2009,06,18,22,58,16.60
2009,06,18,22,59,16.60
2009,06,18,23,00,16.60
2009,06,18,23,01,16.50
2009,06,18,23,02,16.40
2009,06,18,23,03,16.40
2009,06,18,23,04,16.40
2009,06,18,23,05,16.40
2009,06,18,23,06,16.40
2009,06,18,23,07,16.40
2009,06,18,23,08,16.40
2009,06,18,23,09,16.40
2009,06,18,23,10,16.40
2009,06,18,23,11,16.40
2009,06,18,23,12,16.40
2009,06,18,23,13,16.40
2009,06,18,23,14,16.30
2009,06,18,23,15,16.30
2009,06,18,23,16,16.30
2009,06,18,23,17,16.30
2009,06,18,23,18,16.30
2009,06,18,23,19,16.20
2009,06,18,23,20,16.20
2009,06,18,23,21,16.20
2009,06,18,23,22,16.20
2009,06,18,23,23,16.20
2009,06,18,23,24,16.10
2009,06,18,23,25,16.10
2009,06,18,23,26,16.10
2009,06,18,23,27,16.10
2009,06,18,23,28,16.10
2009,06,18,23,29,16.10
2009,06,18,23,30,16.10
2009,06,18,23,31,16.10
2009,06,18,23,32,16.10
2009,06,18,23,33,16.10
2009,06,18,23,34,16.10
2009,06,18,23,35,16.10
2009,06,18,23,36,16.10
2009,06,18,23,37,16.10
2009,06,18,23,38,16.10
2009,06,18,23,39,16.10
2009,06,18,23,40,16.10
2009,06,18,23,41,16.10
2009,06,18,23,42,16.10
2009,06,18,23,43,16.10
2009,06,18,23,44,16.10
2009,06,18,23,45,16.10
2009,06,18,23,46,16.10
2009,06,18,23,47,16.10
2009,06,18,23,48,15.90
2009,06,18,23,49,15.90
2009,06,18,23,50,15.90
2009,06,18,23,51,15.90
2009,06,18,23,52,15.90
2009,06,18,23,53,15.90
2009,06,18,23,54,15.90
2009,06,18,23,55,15.90
2009,06,18,23,56,15.90
2009,06,18,23,57,15.90
2009,06,18,23,58,15.90
2009,06,18,23,59,15.90
